Location: Wapato
(46.4478°N, 120.4212°W)
Time: 00:36:11
(UTC+00:00)

Vanguard 1 Rocket - All Passes

Search period start: 12 May 2026 00:00
Search period end: 22 May 2026 00:00
Orbit: 655 x 4212 km, 34.3° (Epoch: 11 May)

Date Brightness Start Highest point End Pass type
(mag) Time Alt. Az. Time Alt. Az. Time Alt. Az.
12 May - 00:15:26 10° SW 00:26:16 47° SSE 00:45:46 10° E daylight
12 May - 02:39:26 10° WSW 02:54:22 56° S 03:18:24 10° ESE daylight
12 May - 05:06:02 10° W 05:24:09 42° SSW 05:47:01 10° SSE visible
12 May - 07:38:29 10° W 07:52:31 19° SW 08:07:02 10° SSW visible
12 May - 23:04:33 10° SSW 23:13:21 36° SSE 23:28:41 10° E daylight
13 May - 01:27:15 10° WSW 01:39:50 55° S 02:02:01 10° ESE daylight
13 May - 03:52:31 10° W 04:09:01 49° SSW 04:32:52 10° SE visible
13 May - 06:21:20 10° W 06:38:15 28° SW 06:57:27 10° S visible
13 May - 21:54:37 10° S 22:01:16 23° SE 22:11:28 10° E daylight
14 May - 00:15:37 10° SW 00:26:03 49° SSE 00:45:12 10° E daylight
14 May - 02:39:46 10° W 02:54:05 53° S 03:17:30 10° ESE daylight
14 May - 05:06:30 10° W 05:23:30 37° SSW 05:45:20 10° SSE visible
14 May - 07:41:25 10° WSW 07:51:33 14° SW 08:02:08 10° SSW visible
14 May - 20:47:43 10° SE 20:49:48 11° SE 20:52:08 10° ESE daylight
14 May - 23:04:34 10° SW 23:13:05 39° SSE 23:28:19 10° E daylight
15 May - 01:27:35 10° WSW 01:39:39 54° S 02:01:15 10° ESE daylight
15 May - 03:52:55 10° W 04:08:35 44° SSW 04:31:31 10° SE visible
15 May - 06:22:30 10° W 06:37:26 23° SW 06:54:36 10° S visible
15 May - 21:54:18 10° SSW 22:00:55 26° SE 22:11:31 10° E daylight
16 May - 00:15:54 10° WSW 00:25:55 50° SSE 00:44:35 10° ESE daylight
16 May - 02:40:08 10° W 02:53:50 49° SSW 03:16:25 10° SE daylight
16 May - 05:07:11 10° W 05:22:53 32° SSW 05:43:14 10° SSE visible
16 May - 20:45:43 10° SSE 20:49:22 14° SE 20:53:59 10° ESE daylight
16 May - 23:04:44 10° SW 23:12:56 41° SSE 23:27:54 10° E daylight
17 May - 01:27:57 10° WSW 01:39:33 51° S 02:00:24 10° ESE daylight
17 May - 03:53:25 10° W 04:08:11 39° SSW 04:29:54 10° SSE visible
17 May - 06:24:24 10° WSW 06:36:41 18° SW 06:50:45 10° S visible
17 May - 21:54:11 10° SSW 22:00:42 29° SSE 22:11:27 10° E daylight
18 May - 00:16:15 10° WSW 00:25:53 49° S 00:43:56 10° ESE daylight
18 May - 02:40:36 10° W 02:53:38 45° SSW 03:15:09 10° SE daylight
18 May - 05:08:10 10° W 05:22:19 26° SW 05:40:38 10° S visible
18 May - 20:44:48 10° S 20:49:04 16° SE 20:54:49 10° ESE daylight
18 May - 23:05:00 10° SW 23:12:54 42° SSE 23:27:28 10° E daylight
19 May - 01:28:24 10° WSW 01:39:29 48° S 01:59:25 10° ESE daylight
19 May - 03:54:06 10° W 04:07:50 34° SSW 04:27:56 10° SSE visible
19 May - 06:27:58 10° WSW 06:36:02 13° SW 06:44:58 10° SSW visible
19 May - 21:54:15 10° SSW 22:00:36 31° SSE 22:11:18 10° E daylight
20 May - 00:16:40 10° WSW 00:25:54 48° S 00:43:12 10° ESE daylight
20 May - 02:41:09 10° W 02:53:28 40° SSW 03:13:38 10° SE daylight
20 May - 05:09:40 10° WSW 05:21:51 21° SW 05:37:18 10° S visible
20 May - 20:44:21 10° S 20:48:52 19° SE 20:55:17 10° ESE daylight
20 May - 23:05:21 10° SW 23:12:57 43° SSE 23:27:00 10° ESE daylight
21 May - 01:28:55 10° WSW 01:39:28 44° S 01:58:17 10° SE daylight
21 May - 03:55:01 10° W 04:07:32 28° SSW 04:25:32 10° SSE visible
21 May - 21:54:27 10° SW 22:00:36 33° SSE 22:11:07 10° E daylight
